Regional Weather Roundup
Issued by NWS

Home | Current Version | Previous Version | Graphics & Text | Print | Product List | Glossary On
Versions: 1 2 3 4 5 6 7 8 9 10 11 12 13 14 15 16 17 18 19 20 21 22 23 24 25 26 27 28 29 30 31 32 33 34 35 36 37 38 39 40 41 42 43 44 45 46 47 48 49 50
000
ASUS43 KOAX 021610
RWRNE

WEATHER ROUNDUP FOR NEBRASKA
NATIONAL WEATHER SERVICE OMAHA NE
1100 AM CDT WED SEP 02 2015

NOTES: SATELLITE DATA IS BEING USED TO AUGMENT CLOUD COVER ABOVE
       12000 FEET.
       "FAIR" INDICATES FEW OR NO CLOUDS BELOW 12,000 FEET WITH NO
       SIGNIFICANT WEATHER AND/OR OBSTRUCTIONS TO VISIBILITY.

  * THESE STATIONS DO NOT REPORT WEATHER SUCH AS RAIN...SNOW OR FOG.

NEZ001>004-019>022-054>056-021700-
NEBRASKA PANHANDLE

CITY           SKY/WX    TMP DP  RH WIND       PRES   REMARKS
SCOTTSBLUFF    MOSUNNY   74  49  41 W3        29.99S
ALLIANCE       PTSUNNY   78  48  34 W7        29.96S
CHADRON        MOSUNNY   85  46  25 SW7       29.90F
KIMBALL        SUNNY     78  46  32 NW12      30.04F
SIDNEY         PTSUNNY   81  46  29 NW10      30.02S
$$

NEZ057>060-069>072-079>082-021700-
SOUTHWEST NEBRASKA

CITY           SKY/WX    TMP DP  RH WIND       PRES   REMARKS
NORTH PLATTE   SUNNY     79  61  53 NW5       29.91S
IMPERIAL       SUNNY     80  53  39 W7        29.96R
LEXINGTON      SUNNY     83  65  54 S6        29.90F
MCCOOK         SUNNY     82  60  47 SW5       29.92S
OGALLALA       MOSUNNY   79  54  42 CALM      29.94F
$$

NEZ005>010-023>029-035>040-094-021700-
NORTH CENTRAL NEBRASKA

CITY           SKY/WX    TMP DP  RH WIND       PRES   REMARKS
VALENTINE      MOSUNNY   79  55  43 SW6       29.86S
AINSWORTH      MOSUNNY   82  59  44 SW8       29.88S
BROKEN BOW     SUNNY     85  66  53 S6        29.89S
O`NEILL        SUNNY     84  68  57 S9        29.86R
ORD            SUNNY     83  63  50 VRB6      29.86F
THEDFORD       SUNNY     82  58  43 CALM      29.91S
$$

NEZ041-046>049-061>064-073>077-083>087-021700-
SOUTH CENTRAL NEBRASKA

CITY           SKY/WX    TMP DP  RH WIND       PRES   REMARKS
GRAND ISLAND   SUNNY     84  62  47 S8        29.89F
AURORA         SUNNY     81  63  54 S10       29.89S
HASTINGS       SUNNY     82  62  50 SW8       29.90S
HEBRON         SUNNY     83  61  47 SW13G20   29.92R
HOLDREGE       SUNNY     82  59  46 S9        29.91S
KEARNEY *      SUNNY     81  63  54 S9        29.90S
YORK           SUNNY     81  66  61 SW8       29.90S
$$

NEZ011>018-030>034-042>045-021700-
NORTHEAST NEBRASKA

CITY           SKY/WX    TMP DP  RH WIND       PRES   REMARKS
NORFOLK        SUNNY     81  68  64 SE10      29.87S
ALBION         SUNNY     79  66  64 S8        29.88R
BLAIR          SUNNY     78  67  69 S17G23    29.92S
COLUMBUS *     SUNNY     81  64  57 S7        29.89S
FREMONT        SUNNY     81  68  65 S12       29.91S
TEKAMAH        SUNNY     82  70  66 S14G20    29.90S
WAYNE          SUNNY     79  71  75 S13       29.88F
$$

NEZ050>053-065>068-078-088>093-021700-
SOUTHEAST NEBRASKA

CITY           SKY/WX    TMP DP  RH WIND       PRES   REMARKS
LINCOLN        SUNNY     83  68  60 S14       29.91S
OMAHA EPPLEY   MOSUNNY   81  69  67 S21G28    29.92F
BEATRICE       SUNNY     83  67  59 S21G26    29.93S
FALLS CITY     MOSUNNY   78  69  73 SE20      29.98S
NEBRASKA CITY  MOSUNNY   78  65  65 S18G24    29.96S
PLATTSMOUTH    SUNNY     78  67  68 SE14G24   29.94S
$$

NEZ044-045-051>053-067-021700-
OMAHA AREA

CITY           SKY/WX    TMP DP  RH WIND       PRES   REMARKS
OMAHA EPPLEY   MOSUNNY   81  69  67 S21G28    29.92F
BLAIR          SUNNY     78  67  69 S17G23    29.92S
FREMONT        SUNNY     81  68  65 S12       29.91S
MILLARD        SUNNY     81  70  68 S14G21    29.92S
OFFUTT AFB     SUNNY     80  70  70 S15G23    29.93S
PLATTSMOUTH    SUNNY     78  67  68 SE14G24   29.94S
WAHOO          FAIR      81  70  69 S13       29.92R
$$




USA.gov is the U.S. government's official web portal to all federal, state and local government web resources and services.